Location: Newark
(36.0797°N, 3.9744°E)
Time: 08:37:20
(UTC+00:00)

A-11 Canister half - Visible Passes

Search period start: 09 December 2019 00:00
Search period end: 19 December 2019 00:00
Orbit: 1515 x 1685 km, 47.2° (Epoch: 08 December)

Date Brightness Start Highest point End Pass type
(mag) Time Alt. Az. Time Alt. Az. Time Alt. Az.
09 Dec 9.3 16:41:15 10° WNW 16:51:07 57° NNE 17:01:07 10° E visible
09 Dec 9.4 18:46:32 10° WNW 18:56:30 66° SW 19:03:57 20° SSE visible
09 Dec 11.0 20:54:20 10° W 21:00:11 17° WSW 21:02:18 16° SW visible
10 Dec 9.4 18:23:33 10° WNW 18:33:34 69° SW 18:43:37 10° SE visible
10 Dec 11.0 20:30:58 10° W 20:37:20 19° WSW 20:42:37 12° SSW visible
11 Dec 9.3 18:00:35 10° WNW 18:10:38 73° SW 18:20:45 10° SE visible
11 Dec 10.9 20:07:39 10° W 20:14:30 21° SW 20:21:20 10° SSW visible
12 Dec 9.3 17:37:37 10° WNW 17:47:41 77° SW 17:57:51 10° SE visible
12 Dec 10.9 19:44:24 10° W 19:51:38 23° SW 19:58:54 10° S visible
13 Dec 9.3 17:14:40 10° WNW 17:24:45 81° SW 17:34:56 10° SE visible
13 Dec 10.9 19:21:12 10° WNW 19:28:48 25° SW 19:36:23 10° S visible
14 Dec 9.3 16:51:43 10° WNW 17:01:48 84° SW 17:12:00 10° SE visible
14 Dec 10.8 18:58:03 10° WNW 19:05:55 27° SW 19:13:51 10° S visible
15 Dec 10.8 18:34:54 10° WNW 18:43:03 29° SW 18:51:16 10° S visible
16 Dec 10.8 18:11:48 10° WNW 18:20:11 31° SW 18:28:39 10° S visible
17 Dec 10.8 17:48:42 10° WNW 17:57:19 33° SW 18:06:00 10° S visible
18 Dec 10.7 17:25:39 10° WNW 17:34:26 36° SW 17:43:20 10° SSE visible
